Volver al catálogo

FENGYUN 1C DEB

ActivoSSO
NORAD 45526·DEBRIS·🇨🇳 China

Lanzado May 10, 1999 desde Taiyuan Satellite Launch Center

Loading…

Próximos Pases (próximas 24 horas)

TLE

ActualizadoSource: Space-Track

Época: Sep 13, 2026, 17:00 UTC

1 45526U 99025EYR 26256.70883311  .00002348  00000-0  95261-3 0  9992
2 45526  98.7485 334.0671 0053695 143.0106 217.4795 14.27839459472989

Sigue FENGYUN 1C DEB en tiempo real con AllMySat

Download on the App Store